File timestamp: Mon Aug 22 03:00:00 2016, Internal temp: 17.39501953125
1471834801, 0.0228154119104147, -0.0199715290218592, 0.0168312210589647, 33634, 32506, 23213, -35.2205810546875
1471834802, 0.0264291111379862, -0.0194170717149973, 0.0168810151517391, 33636, 32504, 23203, NaN
1471834803, 0.0280025601387024, -0.0194361507892609, 0.0156793035566807, 33635, 32510, 23203, NaN
1471834804, 0.0258246641606092, -0.019494540989399, 0.0154050746932626, 33628, 32519, 23208, NaN
1471834805, 0.0217202976346016, -0.0188666991889477, 0.0152389416471124, 33624, 32496, 23212, NaN
1471834806, 0.0167262777686119, -0.0193968154489994, 0.0147265112027526, 33628, 32505, 23211, NaN
1471834807, 0.0112333055585623, -0.0192796513438225, 0.0147012639790773, 33635, 32520, 23231, NaN
1471834808, 0.00611507054418325, -0.019569044932723, 0.0142766609787941, 33640, 32517, 23213, NaN
1471834809.008, 0.00265176873654127, -0.0196158699691296, 0.0145681845024228, 33630, 32506, 23215, NaN
1471834809.008, -0.000623783911578357, -0.0196139067411423, 0.0147094056010246, 33645, 32515, 23194, NaN
1471834810.016, -0.00328782317228615, -0.0194110721349716, 0.014724456705153, 33646, 32505, 23194, NaN
1471834811.016, -0.00564008159562945, -0.0189772564917803, 0.0155348796397448, 33649, 32518, 23204, NaN
1471834812.016, -0.00798661727458239, -0.0195781923830509, 0.0160860940814018, 33634, 32523, 23210, NaN
1471834813.016, -0.00858670845627785, -0.0185163412243128, 0.0160653684288263, 33639, 32513, 23199, NaN
1471834814.016, -0.00718379719182849, -0.0186644177883863, 0.0160014722496271, 33637, 32508, 23207, NaN
1471834815.016, -0.00465260492637753, -0.0182535219937563, 0.0158827230334282, 33640, 32502, 23208, NaN
1471834816.016, -0.000548804528079927, -0.0181672666221857, 0.0162041764706373, 33639, 32516, 23209, NaN
1471834817.016, 0.00458292849361897, -0.0182325635105371, 0.0162362828850746, 33626, 32510, 23211, NaN
1471834818.016, 0.0102178435772657, -0.0186216235160828, 0.0153958639129996, 33640, 32518, 23196, NaN
1471834819.016, 0.016077846288681, -0.0182567406445742, 0.014953856356442, 33621, 32524, 23212, NaN
1471834820.024, 0.0215432643890381, -0.0181317292153835, 0.0152216050773859, 33643, 32520, 23210, NaN
1471834821.024, 0.026023568585515, -0.0174330994486809, 0.0156451985239983, 33632, 32516, 23208, NaN
1471834822.024, 0.0307175982743502, -0.0170281138271093, 0.0151112489402294, 33642, 32506, 23201, NaN
1471834823.024, 0.0352612808346748, -0.0170526411384344, 0.0152576472610235, 33633, 32513, 23206, NaN
1471834823.024, 0.0391197539865971, -0.0165683161467314, 0.0137254660949111, 33640, 32519, 23205, NaN
1471834824.03, 0.0427801609039307, -0.0165721159428358, 0.0133530395105481, 33639, 32515, 23213, NaN
1471834825.03, 0.0453607104718685, -0.0168942585587502, 0.0136742312461138, 33628, 32518, 23213, NaN
1471834826.03, 0.0468989871442318, -0.0170951019972563, 0.0140841361135244, 33629, 32494, 23210, NaN
1471834827.03, 0.0477358512580395, -0.0170728880912066, 0.0140899997204542, 33648, 32516, 23194, NaN
1471834828.03, 0.0478989258408546, -0.016623193398118, 0.0134826665744185, 33644, 32511, 23203, NaN
1471834829.03, 0.0474857427179813, -0.0161127485334873, 0.0135783944278955, 33629, 32498, 23226, NaN
1471834830.03, 0.0466120429337025, -0.0160151571035385, 0.0135948890820146, 33628, 32529, 23216, NaN
1471834831.038, 0.0445155315101147, -0.0154028832912445, 0.0134971644729376, 33641, 32506, 23197, NaN
1471834832.038, 0.042276356369257, -0.0152065809816122, 0.0140735991299152, 33635, 32515, 23202, NaN
1471834832.038, 0.0388776138424873, -0.0154193518683314, 0.0144421681761742, 33636, 32516, 23196, NaN
1471834833.046, 0.03490000218153, -0.0150583935901523, 0.0148318046703935, 33632, 32514, 23195, NaN
1471834834.046, 0.0306354649364948, -0.0143121471628547, 0.0147997615858912, 33633, 32503, 23213, NaN
1471834835.046, 0.0261289719492197, -0.0149238165467978, 0.0149964662268758, 33632, 32510, 23206, NaN
1471834836.046, 0.0215603187680244, -0.0156496223062277, 0.0144226839765906, 33633, 32502, 23199, NaN
1471834836.046, 0.0176569502800703, -0.0147992940619588, 0.0148371504619718, 33633, 32516, 23206, NaN
1471834837.05, 0.0143403019756079, -0.0153181878849864, 0.0147713851183653, 33640, 32501, 23199, NaN
1471834838.05, 0.0103825880214572, -0.015207577496767, 0.0144651094451547, 33637, 32522, 23196, NaN
1471834839.05, 0.00511654326692224, -0.0154955135658383, 0.0142714967951179, 33633, 32504, 23202, NaN
1471834840.05, -0.000164159791893326, -0.0153880938887596, 0.0151087045669556, 33638, 32503, 23203, NaN
1471834840.05, -0.00510758999735117, -0.0160941556096077, 0.0156558658927679, 33637, 32522, 23204, NaN
1471834841.058, -0.00963685568422079, -0.0164596773684025, 0.0151369720697403, 33646, 32504, 23203, NaN
1471834842.058, -0.0126508781686425, -0.0161832179874182, 0.0150518231093884, 33635, 32510, 23214, NaN
1471834843.058, -0.0156227108091116, -0.0164733342826366, 0.0150846615433693, 33646, 32514, 23206, NaN
1471834844.058, -0.0193133037537336, -0.0166160371154547, 0.0151938125491142, 33639, 32512, 23205, NaN
1471834845.058, -0.0228763930499554, -0.0164146460592747, 0.0155004840344191, 33638, 32516, 23210, NaN
1471834846.058, -0.0265471208840609, -0.0165882408618927, 0.015711585059762, 33626, 32510, 23210, NaN
1471834847.058, -0.0309133529663086, -0.0169028993695974, 0.0170778147876263, 33639, 32518, 23210, NaN
1471834848.058, -0.0344824492931366, -0.0169432237744331, 0.0172337386757135, 33644, 32512, 23203, NaN
1471834849.058, -0.036561381071806, -0.0166667923331261, 0.0172738451510668, 33650, 32505, 23204, NaN
1471834850.058, -0.0373120121657848, -0.0166100524365902, 0.0182315818965435, 33646, 32505, 23194, NaN
1471834851.058, -0.0366734005510807, -0.0158982127904892, 0.0181864090263844, 33620, 32529, 23211, NaN
1471834852.066, -0.0356429778039455, -0.0164075288921595, 0.0176339391618967, 33643, 32502, 23192, NaN
1471834853.066, -0.0345773808658123, -0.0167622268199921, 0.0176389124244452, 33637, 32502, 23204, NaN
1471834854.066, -0.032786026597023, -0.0168212857097387, 0.0170265175402164, 33634, 32509, 23202, NaN
1471834855.066, -0.029546806588769, -0.0171844065189362, 0.015666663646698, 33638, 32515, 23202, NaN
1471834856.066, -0.0264951437711716, -0.0185369625687599, 0.01496004126966, 33628, 32506, 23214, -35.5480613708496
1471834857.066, -0.0224228650331497, -0.0192994680255651, 0.0149696599692106, 33624, 32510, 23214, NaN
1471834858.066, -0.0171928312629461, -0.0194335114210844, 0.0148285664618015, 33633, 32500, 23203, NaN
1471834859.066, -0.0127093577757478, -0.0192959401756525, 0.0141902361065149, 33641, 32507, 23208, NaN
1471834860.066, -0.00898547004908323, -0.0198334045708179, 0.0139405205845833, 33623, 32510, 23212, NaN
1471834861.066, -0.0040936442092061, -0.0195948742330074, 0.014136478304863, 33634, 32505, 23199, NaN
1471834862.066, -4.45662371930666e-05, -0.0198201723396778, 0.0142213404178619, 33639, 32517, 23214, NaN
1471834863.066, 0.00231814826838672, -0.019144281744957, 0.0139851877465844, 33640, 32513, 23188, NaN
1471834863.066, 0.00383675913326442, -0.0195580795407295, 0.0143258543685079, 33635, 32506, 23208, NaN
1471834864.076, 0.00486044399440289, -0.0200427770614624, 0.0143583361059427, 33654, 32518, 23204, NaN
1471834865.076, 0.00534910010173917, -0.0202402174472809, 0.0141745498403907, 33630, 32504, 23210, NaN
1471834866.076, 0.00574386864900589, -0.0201173890382051, 0.0141432620584965, 33629, 32517, 23212, NaN
1471834867.076, 0.00518809678032994, -0.0189378336071968, 0.0134076606482267, 33625, 32516, 23223, NaN
1471834868.076, 0.00391623610630631, -0.0186924431473017, 0.0128001868724823, 33654, 32523, 23205, NaN
1471834869.076, 0.00255401921458542, -0.018463708460331, 0.0125697255134583, 33632, 32513, 23209, NaN
1471834870.076, 4.32772358180955e-05, -0.0185800399631262, 0.0118211470544338, 33627, 32509, 23195, NaN
1471834871.076, -0.00159469968639314, -0.0185999758541584, 0.0122676007449627, 33636, 32507, 23216, NaN
1471834872.076, -0.00295410654507577, -0.0187991242855787, 0.0118705062195659, 33644, 32495, 23215, NaN
1471834873.076, -0.00476091681048274, -0.0185583457350731, 0.0123834796249866, 33643, 32513, 23201, NaN
1471834874.076, -0.0056377979926765, -0.0185851156711578, 0.0118302460759878, 33646, 32515, 23214, NaN
1471834875.086, -0.00543145788833499, -0.0184484981000423, 0.0123256538063288, 33622, 32512, 23208, NaN
1471834876.086, -0.00465438328683376, -0.0189026985317469, 0.0117751155048609, 33634, 32506, 23207, NaN
1471834877.086, -0.00204158178530633, -0.0184777472168207, 0.0121264373883605, 33648, 32496, 23204, NaN
1471834877.086, 0.00159362063277513, -0.0184355452656746, 0.0118460655212402, 33626, 32508, 23209, NaN
1471834878.092, 0.00427105417475104, -0.0180030018091202, 0.0118609042838216, 33641, 32513, 23214, NaN
1471834879.092, 0.00546605279669166, -0.0181865580379963, 0.0122501384466887, 33635, 32527, 23208, NaN
1471834880.092, 0.00664593745023012, -0.0178576186299324, 0.0117141287773848, 33634, 32499, 23206, NaN
1471834881.092, 0.00853831879794598, -0.0179293006658554, 0.0111937811598182, 33632, 32505, 23210, NaN
1471834882.092, 0.0100467586889863, -0.0178610719740391, 0.0113567318767309, 33636, 32515, 23207, NaN
1471834883.092, 0.0112240398302674, -0.016951147466898, 0.0104506583884358, 33642, 32499, 23207, NaN
1471834884.092, 0.0120791867375374, -0.0173433814197779, 0.0102840606123209, 33636, 32523, 23213, NaN
1471834885.092, 0.0133274430409074, -0.0176278278231621, 0.0108890626579523, 33628, 32512, 23215, NaN
1471834886.1, 0.0144802154973149, -0.0173975694924593, 0.011415290646255, 33631, 32516, 23212, NaN
1471834886.1, 0.0150982066988945, -0.0168452467769384, 0.0112949497997761, 33641, 32519, 23205, NaN
1471834887.108, 0.0145514672622085, -0.0167410187423229, 0.0115896267816424, 33639, 32516, 23195, NaN
1471834888.108, 0.0128997340798378, -0.0162250809371471, 0.0114716403186321, 33631, 32508, 23206, NaN
1471834889.108, 0.0106828259304166, -0.0161269940435886, 0.0109655037522316, 33628, 32518, 23188, NaN
1471834890.108, 0.0087492698803544, -0.0159286316484213, 0.0112644601613283, 33631, 32525, 23210, NaN
1471834890.108, 0.0070445672608912, -0.0152879180386662, 0.0109328264370561, 33639, 32520, 23202, NaN
1471834891.112, 0.00545568717643619, -0.0150018157437444, 0.0110971741378307, 33623, 32506, 23216, NaN
1471834892.112, 0.00360627309419215, -0.0147974817082286, 0.0108323162421584, 33637, 32508, 23202, NaN
1471834893.112, 0.000819390872493386, -0.0157147999852896, 0.0110248224809766, 33637, 32511, 23208, NaN
1471834894.112, -0.000310491479467601, -0.0160991176962852, 0.0115837762132287, 33638, 32513, 23210, NaN
1471834895.112, 0.00641666492447257, -0.0161204189062119, 0.0110243456438184, 33619, 32512, 23211, NaN
1471834896.12, 0.0176166277378798, -0.0165082719177008, 0.0112703870981932, 33634, 32515, 23201, NaN
1471834897.12, 0.0323418341577053, -0.0164386797696352, 0.0111346431076527, 33649, 32513, 23195, NaN
1471834898.12, 0.0491612777113914, -0.016444243490696, 0.0112056527286768, 33645, 32517, 23209, NaN
1471834899.12, 0.0665851235389709, -0.0157113932073116, 0.0110168810933828, 33639, 32508, 23217, NaN
1471834899.12, 0.0841573923826218, -0.0155508108437061, 0.0115059185773134, 33632, 32513, 23208, NaN
1471834900.126, 0.101346723735332, -0.0157597903162241, 0.0118010323494673, 33619, 32504, 23218, NaN
1471834901.126, 0.117944613099098, -0.0160030424594879, 0.0124427853152156, 33634, 32512, 23197, NaN
1471834902.126, 0.132252275943756, -0.0160552058368921, 0.0123955104500055, 33642, 32510, 23205, NaN
1471834903.126, 0.144138962030411, -0.0164748392999172, 0.0114003634080291, 33646, 32510, 23190, NaN
1471834904.126, 0.153754353523254, -0.0173876881599426, 0.0118049960583448, 33631, 32522, 23196, NaN
1471834905.126, 0.160802930593491, -0.0167885944247246, 0.0113204577937722, 33636, 32513, 23211, NaN
1471834906.136, 0.165374949574471, -0.0168909057974815, 0.010773359797895, 33645, 32531, 23211, NaN
1471834907.136, 0.168609097599983, -0.0170967672020197, 0.0115113575011492, 33629, 32513, 23196, NaN
1471834908.136, 0.171303987503052, -0.0168038699775934, 0.0120360162109137, 33634, 32517, 23209, NaN
1471834909.136, 0.172835767269135, -0.0176223888993263, 0.0117423208430409, 33630, 32518, 23207, NaN
1471834910.136, 0.172946467995644, -0.0182774160057306, 0.0108076678588986, 33631, 32500, 23209, NaN
1471834911.136, 0.171866178512573, -0.0195672530680895, 0.0112941795960069, 33643, 32512, 23205, -35.9047164916992
1471834912.136, 0.170129477977753, -0.0197147019207478, 0.0113367894664407, 33652, 32512, 23192, NaN
1471834913.136, 0.167713418602943, -0.0199192482978106, 0.0110773760825396, 33627, 32509, 23207, NaN
1471834914.136, 0.162577971816063, -0.0200807228684425, 0.0112126776948571, 33640, 32506, 23200, NaN
1471834915.136, 0.15529677271843, -0.0204933788627386, 0.0113511355593801, 33640, 32512, 23200, NaN
1471834916.136, 0.14695531129837, -0.0202755238860846, 0.0116862626746297, 33632, 32509, 23207, NaN
1471834917.136, 0.137717247009277, -0.0206550732254982, 0.0114110624417663, 33630, 32521, 23206, NaN
1471834918.136, 0.127530783414841, -0.0205943789333105, 0.0114929201081395, 33638, 32510, 23220, NaN
1471834919.144, 0.116927854716778, -0.0204734466969967, 0.0112601537257433, 33627, 32511, 23217, NaN
1471834920.144, 0.105852954089642, -0.0205726474523544, 0.0118239745497704, 33633, 32501, 23195, NaN
1471834921.144, 0.0948497131466866, -0.0210263505578041, 0.0118249226361513, 33640, 32505, 23206, NaN
1471834922.144, 0.0838866606354713, -0.0211926363408566, 0.0111573822796345, 33644, 32506, 23209, NaN
1471834923.144, 0.0730320885777473, -0.0224375501275063, 0.0116735883057117, 33641, 32519, 23207, NaN
1471834924.144, 0.0619578883051872, -0.022610304877162, 0.0112960850819945, 33639, 32502, 23210, NaN
1471834925.144, 0.0514172688126564, -0.0230967253446579, 0.0115893883630633, 33632, 32510, 23209, NaN
1471834926.144, 0.0419854819774628, -0.0231382939964533, 0.0122992796823382, 33639, 32513, 23206, NaN
1471834927.144, 0.0328130275011063, -0.0230555310845375, 0.0113909048959613, 33643, 32507, 23209, NaN
1471834928.144, 0.0244262255728245, -0.0228956043720245, 0.0118108130991459, 33647, 32512, 23196, NaN
1471834929.144, 0.0164445973932743, -0.0229456163942814, 0.011692127212882, 33624, 32515, 23204, NaN
1471834930.154, 0.00901560671627522, -0.0224842485040426, 0.0122806951403618, 33641, 32498, 23187, NaN
1471834931.154, 0.0026150627527386, -0.0231699720025063, 0.012531042098999, 33648, 32502, 23199, NaN
1471834932.154, -0.00303953653201461, -0.0243693329393864, 0.0126714892685413, 33633, 32508, 23213, NaN
1471834932.154, -0.00839115772396326, -0.0243678167462349, 0.0124920792877674, 33641, 32523, 23202, NaN
1471834933.16, -0.0128856254741549, -0.0246593225747347, 0.0124614275991917, 33635, 32515, 23199, NaN
1471834934.16, -0.0162184294313192, -0.0246573109179735, 0.0113644041121006, 33628, 32515, 23215, NaN
1471834935.16, -0.0190736521035433, -0.0246651694178581, 0.0116428732872009, 33649, 32501, 23201, NaN
1471834936.16, -0.0209824312478304, -0.0245529524981976, 0.0120045533403754, 33643, 32497, 23203, NaN
1471834937.16, -0.0221574697643518, -0.0238877702504396, 0.0119356391951442, 33634, 32508, 23202, NaN
1471834938.16, -0.0230037868022919, -0.0242573842406273, 0.0121363801881671, 33633, 32505, 23198, NaN
1471834939.16, -0.0236169267445803, -0.0233679227530956, 0.0114179532974958, 33638, 32500, 23214, NaN
1471834940.16, -0.0241758953779936, -0.0229677520692348, 0.0109994066879153, 33627, 32511, 23212, NaN
1471834941.17, -0.0242450181394815, -0.0224450007081032, 0.0100075965747237, 33628, 32521, 23217, NaN
1471834941.17, -0.0229279734194279, -0.0226090103387833, 0.0087484261021018, 33642, 32516, 23190, NaN
1471834942.178, -0.0216312911361456, -0.0217365846037865, 0.00879597198218107, 33631, 32507, 23210, NaN
1471834943.178, -0.0204789284616709, -0.0219232067465782, 0.00847561843693256, 33635, 32502, 23208, NaN
1471834944.178, -0.0196066126227379, -0.0213613137602806, 0.00802314281463623, 33621, 32515, 23198, NaN
1471834945.178, -0.0188512615859509, -0.0206357203423977, 0.00904045347124338, 33637, 32514, 23211, NaN
1471834945.178, -0.017873402684927, -0.0202155821025372, 0.00965450517833233, 33634, 32520, 23211, NaN
1471834946.182, -0.0173543896526098, -0.0192628707736731, 0.00972132291644812, 33636, 32519, 23201, NaN
1471834947.182, -0.0167738124728203, -0.018584132194519, 0.0105728944763541, 33634, 32510, 23211, NaN
1471834948.182, -0.0153550058603287, -0.0187717564404011, 0.0114775421097875, 33660, 32499, 23202, NaN
1471834949.182, -0.0140877859666944, -0.0192325487732887, 0.0109336143359542, 33631, 32509, 23202, NaN
1471834950.182, -0.0124232498928905, -0.0190186221152544, 0.0102974846959114, 33630, 32512, 23205, NaN
1471834951.192, -0.0101858656853437, -0.0193253830075264, 0.0101773226633668, 33634, 32514, 23212, NaN
1471834952.192, -0.00777286477386951, -0.0180613212287426, 0.0100413840264082, 33640, 32514, 23200, NaN
1471834953.192, -0.00517081236466765, -0.0183064080774784, 0.0101201385259628, 33616, 32515, 23217, NaN
1471834954.192, -0.00316068180836737, -0.0181518886238337, 0.0100568570196629, 33635, 32507, 23202, NaN
1471834954.192, -0.00102114886976779, -0.0180917289108038, 0.0111105116084218, 33639, 32502, 23209, NaN
1471834955.198, 0.000909085501916707, -0.0174387209117413, 0.0105802714824677, 33636, 32514, 23209, NaN
1471834956.198, 0.00306888320483267, -0.016685102134943, 0.0104282489046454, 33634, 32518, 23201, NaN
1471834957.198, 0.00473741348832846, -0.01625981554389, 0.00971955060958862, 33637, 32509, 23209, NaN
1471834958.198, 0.0059678191319108, -0.0166658814996481, 0.00920177530497313, 33637, 32506, 23211, NaN
1471834958.198, 0.00721810245886445, -0.0158901158720255, 0.00947572570294142, 33639, 32511, 23202, NaN
1471834959.2, 0.00944481138139963, -0.016369542106986, 0.00898414291441441, 33640, 32505, 23190, NaN
1471834960.2, 0.0173654016107321, -0.0162749700248241, 0.00883904844522476, 33646, 32513, 23208, NaN
1471834961.208, 0.033464353531599, -0.0156610757112503, 0.00892736203968525, 33633, 32501, 23207, NaN
1471834962.208, 0.058324970304966, -0.0149100730195642, 0.00952069088816643, 33630, 32506, 23210, NaN
1471834963.208, 0.0912453606724739, -0.0148285450413823, 0.00942197535187006, 33621, 32511, 23218, NaN
1471834964.208, 0.130732789635658, -0.0154107483103871, 0.00989799108356237, 33634, 32515, 23212, NaN
1471834965.208, 0.132881611585617, -0.0155362756922841, 0.0100541049614549, 33627, 32507, 23197, NaN
1471834966.208, 0.0911872982978821, -0.0156326871365309, 0.0109690735116601, 33621, 32499, 23209, -32.8988800048828
1471834967.208, 0.0554278492927551, -0.0159497130662203, 0.011371742002666, 33636, 32519, 23215, NaN
1471834968.178, 0.0251533668488264, -0.0157026536762714, 0.0113622080534697, 33631, 32502, 23206, NaN
1471834969.178, -8.12418002169579e-05, -0.0158322416245937, 0.0110284881666303, 33637, 32513, 23221, NaN
1471834970.178, -0.0207141507416964, -0.0150834126397967, 0.0109657431021333, 33637, 32513, 23208, NaN
1471834971.178, -0.0371743626892567, -0.0153747340664268, 0.0104759642854333, 33631, 32515, 23205, NaN
1471834972.178, -0.0498794540762901, -0.0152775188907981, 0.0103308698162436, 33638, 32518, 23194, NaN
1471834973.188, -0.0592334233224392, -0.015102930366993, 0.00962974689900875, 33639, 32509, 23203, NaN
1471834974.188, -0.0656246319413185, -0.0147834531962872, 0.00966894347220659, 33636, 32518, 23208, NaN
1471834975.188, -0.069423995912075, -0.0151022514328361, 0.00893783662468195, 33636, 32490, 23198, NaN
1471834976.188, -0.0709833800792694, -0.015620393678546, 0.00873296801000834, 33631, 32525, 23202, NaN
1471834977.188, -0.0706342235207558, -0.0160959474742413, 0.00899521913379431, 33640, 32507, 23207, NaN
1471834978.188, -0.0686864778399467, -0.0161834470927715, 0.00947919208556414, 33628, 32515, 23213, NaN
1471834979.188, -0.0654278248548508, -0.0159150939434767, 0.00943506322801113, 33628, 32507, 23206, NaN
1471834980.188, -0.0611231103539467, -0.0160084441304207, 0.00881519448012114, 33638, 32505, 23207, NaN
1471834981.188, -0.0560141280293465, -0.0156157379969954, 0.00906907208263874, 33648, 32505, 23203, NaN
1471834982.188, -0.0503195971250534, -0.0158351492136717, 0.00866264570504427, 33631, 32513, 23205, NaN
1471834983.188, -0.044235423207283, -0.0165765304118395, 0.00882706604897976, 33631, 32510, 23215, NaN
1471834984.188, -0.0379351451992989, -0.016741868108511, 0.00828109681606293, 33631, 32511, 23214, NaN
1471834985.196, -0.0315705984830856, -0.0171645525842905, 0.00868216436356306, 33644, 32510, 23204, NaN
1471834986.196, -0.0252727549523115, -0.0176264625042677, 0.00927802734076977, 33632, 32515, 23204, NaN
1471834986.196, -0.0191526934504509, -0.01744619384408, 0.0101888217031956, 33630, 32509, 23218, NaN
1471834987.202, -0.0133027192205191, -0.0172981377691031, 0.0105114793404937, 33644, 32516, 23212, NaN
1471834988.202, -0.00779756531119347, -0.0179996956139803, 0.0118431374430656, 33640, 32516, 23223, NaN
1471834989.202, -0.00269567547366023, -0.0179767105728388, 0.0118793845176697, 33632, 32512, 23205, NaN
1471834990.202, 0.00195945962332189, -0.0178941041231155, 0.0126238176599145, 33633, 32512, 23215, NaN
1471834991.202, 0.0061379368416965, -0.0179217085242271, 0.013226231560111, 33655, 32501, 23195, NaN
1471834992.202, 0.0098220631480217, -0.0179116036742926, 0.0129801910370588, 33639, 32515, 23197, NaN
1471834993.202, 0.0130049837753177, -0.0182488542050123, 0.0131311472505331, 33642, 32508, 23200, NaN
1471834994.202, 0.0156893376260996, -0.0179242882877588, 0.0129691055044532, 33642, 32506, 23206, NaN
1471834995.212, 0.0178859494626522, -0.0183575414121151, 0.0133263040333986, 33638, 32495, 23200, NaN
1471834995.212, 0.0191675201058388, -0.01767972484231, 0.0129741942510009, 33619, 32507, 23215, NaN
1471834996.22, 0.016241293400526, -0.0181392058730125, 0.0130944075062871, 33641, 32506, 23206, NaN
1471834997.22, 0.0101409461349249, -0.0185055993497372, 0.0133710531517863, 33633, 32514, 23209, NaN
1471834998.22, 0.00251473439857364, -0.0183312427252531, 0.0139761762693524, 33634, 32519, 23210, NaN
1471834999.22, -0.0060826363041997, -0.0183664690703154, 0.0140210958197713, 33643, 32508, 23208, NaN
1471834999.22, -0.0135010797530413, -0.0183569565415382, 0.0138201955705881, 33634, 32521, 23206, NaN
1471835000.224, -0.0203496497124434, -0.0183221437036991, 0.0129127036780119, 33636, 32517, 23195, NaN
1471835001.224, -0.0262621268630028, -0.018201382830739, 0.0130141135305166, 33629, 32516, 23209, NaN
1471835002.224, -0.0303086787462234, -0.0181459337472916, 0.0127399824559689, 33645, 32505, 23198, NaN
1471835003.224, -0.0311806201934814, -0.0175567641854286, 0.0125999953597784, 33628, 32489, 23202, NaN
1471835004.224, -0.0302070733159781, -0.0178055539727211, 0.0132597247138619, 33648, 32511, 23189, NaN
1471835005.234, -0.02715964615345, -0.0174896325916052, 0.0132275326177478, 33638, 32509, 23221, NaN
1471835006.234, -0.0228208731859922, -0.0175088681280613, 0.012636479921639, 33625, 32515, 23205, NaN
1471835007.234, -0.0163851361721754, -0.0170132853090763, 0.0118421223014593, 33628, 32511, 23222, NaN
1471835008.234, -0.00940590631216764, -0.0171498265117407, 0.0125184701755643, 33640, 32518, 23196, NaN
1471835008.234, -0.00225986377336085, -0.0175394546240568, 0.0126548074185848, 33625, 32527, 23216, NaN
1471835009.24, 0.00557766854763031, -0.0175848193466663, 0.0134358163923025, 33633, 32500, 23210, NaN
1471835010.24, 0.0124363275244832, -0.0179375875741243, 0.0143494307994843, 33645, 32510, 23196, NaN
1471835011.24, 0.0194507259875536, -0.0179829318076372, 0.0153083736076951, 33638, 32509, 23206, NaN
1471835012.24, 0.0263085924088955, -0.0178487133234739, 0.0160474609583616, 33644, 32508, 23201, NaN
1471835012.24, 0.0330984964966774, -0.0180810373276472, 0.0155399041250348, 33635, 32504, 23191, NaN
1471835013.242, 0.0395800471305847, -0.0189144872128963, 0.0158283617347479, 33648, 32509, 23205, NaN